Location: Mentone
(34.5413°N, 85.5351°W)
Time: 09:02:27
(UTC-06:00)

Tiros 1 despin weight - All Passes

Search period start: 03 March 2015 00:00
Search period end: 13 March 2015 01:00
Orbit: 599 x 648 km, 48.2° (Epoch: 02 March)

Date Brightness Start Highest point End Pass type
(mag) Time Alt. Az. Time Alt. Az. Time Alt. Az.
03 Mar - 03:19:28 10° SSE 03:21:52 15° SE 03:24:27 10° E visible
03 Mar - 04:58:42 10° SW 05:03:09 79° NW 05:07:39 10° NE visible
03 Mar - 06:41:56 10° WNW 06:45:23 21° NNW 06:48:50 10° NNE daylight
03 Mar - 08:25:55 10° NNW 08:28:23 14° N 08:30:53 10° NE daylight
03 Mar - 10:07:33 10° NNW 10:11:19 25° NNE 10:15:09 10° ENE daylight
03 Mar - 11:48:48 10° NW 11:53:25 80° SW 11:58:04 10° SE daylight
03 Mar - 13:32:55 10° WSW 13:34:39 12° SW 13:36:09 10° SSW daylight
04 Mar - 03:36:05 10° SSW 03:40:02 33° SE 03:44:04 10° ENE visible
04 Mar - 05:17:26 10° W 05:21:39 41° NNW 05:25:54 10° NE visible
04 Mar - 07:01:27 10° NW 07:04:16 16° N 07:07:05 10° NNE daylight
04 Mar - 08:44:33 10° NNW 08:47:21 16° N 08:50:14 10° NE daylight
04 Mar - 10:25:42 10° NW 10:30:01 39° NNE 10:34:23 10° E daylight
04 Mar - 12:07:26 10° WNW 12:11:42 37° SW 12:15:59 10° SSE daylight
05 Mar - 03:53:53 10° SW 03:58:18 74° SE 04:02:45 10° NE visible
05 Mar - 05:36:37 10° W 05:40:20 25° NNW 05:44:03 10° NNE visible
05 Mar - 07:20:47 10° NW 07:23:14 14° N 07:25:41 10° NNE daylight
05 Mar - 09:02:49 10° NNW 09:06:14 21° NNE 09:09:45 10° ENE daylight
05 Mar - 10:43:57 10° NW 10:48:32 74° NE 10:53:10 10° ESE daylight
05 Mar - 12:26:47 10° W 12:29:53 17° SW 12:32:51 10° S daylight
06 Mar - 02:31:50 10° S 02:35:16 23° SE 02:38:48 10° E visible
06 Mar - 04:12:21 10° WSW 04:16:42 55° NNW 04:21:06 10° NE visible
06 Mar - 05:56:04 10° WNW 05:59:09 18° NNW 06:02:13 10° NNE daylight
06 Mar - 07:39:39 10° NNW 07:42:13 15° N 07:44:48 10° NE daylight
06 Mar - 09:20:58 10° NW 09:25:00 31° NNE 09:29:07 10° E daylight
06 Mar - 11:02:24 10° WNW 11:06:53 54° SW 11:11:24 10° SE daylight
07 Mar - 02:49:12 10° SSW 02:53:28 50° SE 02:57:48 10° ENE visible
07 Mar - 04:31:19 10° W 04:35:18 31° NNW 04:39:16 10° NE visible
07 Mar - 06:15:32 10° NW 06:18:05 15° N 06:20:36 10° NNE daylight
07 Mar - 07:58:02 10° NNW 08:01:08 18° NNE 08:04:17 10° ENE daylight
07 Mar - 09:39:08 10° NW 09:43:35 54° NNE 09:48:06 10° ESE daylight
07 Mar - 11:21:19 10° WNW 11:25:06 25° SW 11:28:49 10° S daylight
08 Mar - 01:27:57 10° SSE 01:30:30 15° SE 01:33:12 10° E night (unlit)
08 Mar - 04:07:22 10° WSW 04:11:48 76° NW 04:16:15 10° NE visible
08 Mar - 05:50:40 10° WNW 05:54:02 20° NNW 05:57:24 10° NNE visible
08 Mar - 07:34:39 10° NNW 07:37:03 14° N 07:39:27 10° NE daylight
08 Mar - 09:16:12 10° NNW 09:19:57 25° NNE 09:23:45 10° E daylight
08 Mar - 10:57:26 10° NW 11:02:00 77° SW 11:06:36 10° SE daylight
08 Mar - 12:41:57 10° WSW 12:43:13 11° SW 12:44:14 10° SW daylight
09 Mar - 02:44:39 10° SSW 02:48:39 34° SE 02:52:42 10° ENE night (unlit)
09 Mar - 04:26:06 10° W 04:30:17 39° NNW 04:34:28 10° NE visible
09 Mar - 06:10:10 10° NW 06:12:55 16° N 06:15:38 10° NNE visible
09 Mar - 07:53:12 10° NNW 07:55:59 16° N 07:58:49 10° NE daylight
09 Mar - 09:34:20 10° NW 09:38:36 40° NNE 09:42:56 10° E daylight
09 Mar - 11:16:05 10° WNW 11:20:15 35° SW 11:24:27 10° SSE daylight
10 Mar - 01:25:32 10° SE 01:25:44 10° SE 01:26:10 10° ESE night (unlit)
10 Mar - 03:02:28 10° SW 03:06:54 77° SE 03:11:20 10° NE visible
10 Mar - 04:45:17 10° WNW 04:48:56 24° NNW 04:52:35 10° NNE visible
10 Mar - 06:29:29 10° NW 06:31:51 14° N 06:34:13 10° NNE visible
10 Mar - 08:11:26 10° NNW 08:14:50 21° NNE 08:18:18 10° ENE daylight
10 Mar - 09:52:32 10° NW 09:57:05 77° NE 10:01:40 10° ESE daylight
10 Mar - 11:35:30 10° W 11:38:25 16° SW 11:41:11 10° SSW daylight
11 Mar - 01:40:19 10° S 01:43:50 24° SE 01:47:25 10° E night (unlit)
11 Mar - 03:20:57 10° WSW 03:25:17 52° NNW 03:29:39 10° NE visible
11 Mar - 05:04:44 10° WNW 05:07:45 17° NNW 05:10:44 10° NNE visible
11 Mar - 06:48:17 10° NNW 06:50:48 15° N 06:53:20 10° NE daylight
11 Mar - 08:29:32 10° NW 08:33:34 31° NNE 08:37:38 10° E daylight
11 Mar - 10:11:00 10° WNW 10:15:23 51° SW 10:19:50 10° SSE daylight
12 Mar - 01:57:42 10° SW 02:02:01 53° SE 02:06:20 10° ENE night (unlit)
12 Mar - 03:39:56 10° W 03:43:52 30° NNW 03:47:47 10° NE visible
12 Mar - 05:24:10 10° NW 05:26:38 14° N 05:29:06 10° NNE visible
12 Mar - 07:06:37 10° NNW 07:09:41 18° NNE 07:12:49 10° ENE daylight
12 Mar - 08:47:41 10° NW 08:52:06 55° NNE 08:56:35 10° ESE daylight
12 Mar - 10:29:56 10° W 10:33:35 23° SW 10:37:10 10° S daylight
13 Mar - 00:36:18 10° S 00:39:01 16° SE 00:41:51 10° E night (unlit)
